www.pogodaiklimat.ru

Погода и климат >> Архив погоды >> Россия >> Забайкальский край >> Усть-Каренга


ПОГОДА в Усть-Каренге

  • Прогноз погоды в Усть-Каренге
  • Монитор погоды в Усть-Каренге

АРХИВ ПОГОДЫ в Усть-Каренге

Время (UTC), дата Ветер
(напр.,м/с)
 
Видим.   Явления Облачность Т
(С)
Тd
(С)
f
(%)
Тe
(С)
Тes
(С)
Комфортность P
(гПа)
Po
(гПа)
Тmin
(С)
Tmax
(С)
R
(мм)
R24
(мм)
S
(см)
12 15.05 В 2
{12}
50 км 10/6 600 м
[Cb cap Ac und]
+15.6 +0.3 35 +16 +16 987.8 911.4 +18.6
15 15.05 В 5-10
{13}
н/о 10/5 600 м
[Cb cap Ac und]
+14.5 +1.0 40 +13 +13 988.1 911.4
18 15.05 В 4
{12}
н/о 10/8 600 м
[Cb cap Ac und]
+12.2 +1.5 48 +11 +11 989.5 912.0
21 15.05 В 3
{11}
20 км слаб. ливневой дождь 10/6 600 м
[Cb cap Ac und]
+9.3 +3.6 68 +7 +7 991.0 912.7
00 16.05 С 1 20 км {ливн. осадки} 10/10 600 м
[Sc]
+7.5 +4.9 84 +7 +7 992.2 913.4 +7.0 0.6
03 16.05 С 1 20 км слаб. ливневой дождь 10/10 600 м
[Cb cap]
+7.3 +4.8 84 +6 +6 995.2 916.0
06 16.05 ЮВ 2 20 км {ливн. осадки} 10/6 600 м
[Cb cap Ac und]
+10.0 +2.6 60 +9 +9 994.4 916.0
09 16.05 З 1 50 км 7 баллов +10.7 +2.3 56 +11 +12 994.2 916.0
12 16.05 Ю 1 20 км слаб. ливневой дождь 8/8 600 м
[Cb cap]
+8.6 +4.1 73 +8 +8 995.9 917.1 +11.3 0.6
15 16.05 ЮВ 1 н/о 10 баллов +4.9 +3.6 91 +4 +4 998.8 918.7
18 16.05 штиль 0 н/о {ливн. осадки} 8/4 600 м
[Cb cap Ac trans Ci sp]
+2.0 +1.4 96 +1 +1 999.8 918.7
21 16.05 штиль 0 50 км 7 баллов +0.7 +0.3 97 -1 -1 1000.2 918.7
00 17.05 Ю 1 50 км 10/3 600 м
[Sc Ac lent Ci fib]
+7.8 +1.9 66 +7 +10 996.6 917.5 -0.1 0.1
03 17.05 СЗ 2 50 км 10 баллов +13.3 +1.0 43 +13 +13 994.9 917.3
06 17.05 С 4 50 км 10 баллов +13.3 +0.7 42 +12 +12 996.5 918.7
09 17.05 С 2 20 км слаб. ливневой дождь 10 баллов +7.9 +3.2 72 +6 +6 999.4 920.0
12 17.05 СЗ 4 50 км {ливн. осадки} 10/8 600 м
[Cb cap Ac und]
+7.0 -0.3 60 +4 +4 1000.3 920.7 +14.4 0.0
15 17.05 СЗ 3 н/о 10 баллов +5.3 -2.1 59 +2 +2 1003.2 922.7
18 17.05 СЗ 1 н/о 10/8 600 м
[Sc Ac und]
+4.5 -2.6 60 +4 +4 1004.8 924.0
21 17.05 СЗ 2 50 км 10 баллов +3.7 -3.8 58 +1 +1 1005.1 924.0
00 18.05 СЗ 3 20 км осадки на расстоянии 10/10 600 м
[Cb cap]
+5.0 -1.7 62 +2 +2 1005.0 924.4 +3.7
03 18.05 СЗ 4 50 км 10 баллов +8.7 -0.3 53 +6 +6 1006.5 926.7
06 18.05 С 3 50 км 6/4 1000 м
[Cu med, cong Ci fib]
+13.3 -1.8 35 +12 +17 1003.7 925.3
09 18.05 СЗ 4 50 км 4 балла +13.4 -3.4 31 +12 +14 1005.2 926.7
12 18.05 С 2
{10}
50 км 4/3 1000 м
[Sc diur, vesp Ci fib]
+7.0 -4.4 44 +5 +5 1008.7 928.3 +14.9
15 18.05 ЮЗ 1 н/о 2 балла +2.4 -4.6 60 +1 +1 1014.2 932.0
18 18.05 штиль 0 н/о 8/8 600 м
[Sc]
+1.7 -3.8 67 +1 +1 1014.4 932.0
21 18.05 С 1 50 км 10 баллов +0.7 -3.4 74 -1 -1 1016.1 933.3
00 19.05 СВ 3 50 км 10/5 600 м
[Sc Ac und]
+4.7 -4.0 53 +2 +3 1014.4 932.9 +0.2
03 19.05 С 2 50 км 9 баллов +9.1 -5.6 35 +8 +10 1013.6 933.3
06 19.05 С 3 50 км 10/10 600 м
[Sc]
+11.6 -5.0 31 +10 +10 1011.5 932.0
09 19.05 СЗ 2 50 км 10 баллов +10.9 -5.1 32 +10 +10 1011.7 932.0
12 19.05 С 4 50 км 4/3 1000 м
[Sc Ac trans]
+9.3 -6.1 33 +7 +7 1012.1 932.0 +12.0
15 19.05 С 1 н/о 5 баллов +4.9 -5.2 48 +4 +4 1016.4 934.7
18 19.05 З 1 н/о 7 баллов +2.5 -4.3 61 +1 +1 1015.6 933.3
21 19.05 СВ 1 50 км 2 балла +1.5 -5.0 62 0 +1 1015.9 933.3
00 20.05 С 4 50 км 3/3 1000 м
[Sc]
+6.8 -5.4 41 +4 +7 1013.3 932.5 +1.0
03 20.05 С 4 50 км 2 балла +11.5 -5.0 31 +10 +18 1011.5 932.0
06 20.05 СВ 3 50 км 6 баллов +14.2 -4.5 27 +14 +18 1007.8 929.3
09 20.05 СЗ 3 50 км 4 балла +14.6 -5.7 24 +14 +17 1007.7 929.3
12 20.05 СЗ 3 50 км 3/3 1000 м
[Sc diur, vesp]
+12.9 -6.2 26 +12 +12 1006.6 927.9 +16.0
15 20.05 СЗ 1 н/о 2 балла +8.3 -7.4 32 +8 +8 1009.5 929.3
18 20.05 В 1 н/о ясно +1.8 -7.0 52 +1 +1 1013.0 930.7
21 20.05 штиль 0 50 км ясно -3.0 -6.6 76 -4 -4 1014.5 930.7
00 21.05 ЮЗ 1 50 км ясно +9.7 -6.3 32 +10 +17 1008.4 928.8 -3.4
03 21.05 СЗ 3 50 км ясно +15.7 -6.6 21 +15 +28 опасность
простуды
1006.0 928.0
06 21.05 С 4 50 км 4 балла +18.7 -8.5 15 +18 +24 1002.2 925.3
09 21.05 СЗ 4 50 км 5 баллов +20.1 -6.5 16 +20 +21 1000.4 924.0
12 21.05 С 2
{10}
50 км 3/0
[Ci fib]
+17.3 -5.5 21 +18 +18 999.3 922.4 +20.3
15 21.05 В 1 н/о ясно +6.0 -3.9 49 +6 +6 1004.4 924.0
18 21.05 ЮВ 1 н/о 2 балла -0.5 -4.2 76 -2 -2 1006.4 924.0
21 21.05 ЮВ 2 50 км 6 баллов -1.5 -4.7 79 -5 -5 1006.7 924.0
00 22.05 В 1 50 км 3/0
[Ci fib]
+10.6 -2.3 40 +11 +18 1000.7 921.9 -3.5
03 22.05 ЮВ 1 50 км 10 баллов +19.7 -1.4 24 +21 +21 комфорт 996.1 920.0
06 22.05 СЗ 3 50 км 10 баллов +22.9 -0.6 21 +22 +22 комфорт 993.9 918.7
09 22.05 З 7 50 км 10 баллов +21.2 +0.4 25 +21 +21 комфорт 994.3 918.7

 

Местоположение метеостанции Усть-Каренга (Забайкальский край, Россия): широта 54.43 долгота 116.50 высота над уровнем моря 688 м.

В архиве по умолчанию представлена погода в Усть-Каренге за последнюю неделю. Архивные данные за месяц целиком и за предыдущие месяцы, начиная с января 2011 года, Вы можете получить, выбрав интересующий диапазон дат из раскрывающегося списка и нажав кнопку "Ввод!".


*Определитесь, кто Вы:
робот инопланетянин человек

Внимание! Время в таблицах - всемирное. Для получения местного времени необходимо прибавить поправку, которая равна 9 ч.

Смотрите также архив погоды в соседних городах и на ближайших метеорологических станциях:

Погода в Тунгокочене (Забайкальский край, Россия) (116 км)
Погода в Ксеньевской (Забайкальский край, Россия) (174 км)
Погода в Багдарине (Бурятия, Россия) (194 км)
Погода в Чернышевске (Забайкальский край, Россия) (214 км)
Погода в Усугли (Забайкальский край, Россия) (219 км)
Погода в Уаките (Бурятия, Россия) (219 км)
Погода в Тупике (Забайкальский край, Россия) (220 км)
Погода в Троицком Прииске (Бурятия, Россия) (220 км)
Погода в Могоче (Забайкальский край, Россия) (222 км)
Погода в Баунте (Бурятия, Россия) (237 км)

Пояснения к столбцам:

Ветер - указаны скорость ветра в м/с - средняя за 10 мин, порывы в срок и между сроками (в фигурных скобках) и направление, откуда дует ветер: С - северный, СВ - северо-восточный, В - восточный, ЮВ - юго-восточный, Ю - южный, ЮЗ - юго-западный, З - западный, СЗ - северо-западный.
Видимость - горизонтальная дальность видимости в метрах или километрах. При видимости от 1 до 10 км при отсутствии осадков обычно наблюдается дымка, при ухудшении видимости до 1 км и менее - туман. В сухую погоду видимость может ухудшаться дымом, пылью или мглою.
Явления - указаны атмосферные явления, наблюдавшиеся в срок или в последний час перед сроком; фигурными скобками обозначены явления, наблюдавшиеся между сроками (за 1-3 часа до срока); квадратными скобками обозначены град или гололедные отложения с указанием их диаметра в мм.
Облачность - указаны через наклонную черту общая и нижняя облачность в баллах и высота нижней границы облаков в метрах; квадратными скобками обозначены формы облаков: Ci - перистые, Cs - перисто-слоистые, Cc - перисто-кучевые, Ac - высококучевые, As - высокослоистые, Sc - слоисто-кучевые, Ns - слоисто-дождевые, Cu - кучевые, Cb - кучево-дождевые. Подробнее классификацию облаков см. в Атласе облаков (PDF).
T - Температура воздуха - температура, измеренная на высоте 2 м над землей.
Td - Температура точки росы - температура, при понижении до которой содержащийся в воздухе водяной пар достигнет насыщения.
f - Относительная влажность воздуха - влажноcть воздуха, измеренная на высоте 2 м над землей.
Te - Эффективная температура - температура, которую ощущает одетый по сезону человек в тени. Характеристика душности погоды. При расчете учитывается влияние влажности воздуха и скорости ветра на теплоощущения человека.
Tes - Эффективная температура на солнце - температура, которую ощущает человек, с поправкой на солнечный нагрев. Характеристика знойности погоды. Зависит от высоты солнца над горизонтом, облачности и скорости ветра. Ночью, в пасмурную погоду, а также при ветре 12 м/с и более поправка равна нулю.
P - Атмосферное давление - приведенное к уровню моря атмосферное давление.
Po - Атмосферное давление - измеренное на уровне метеостанции атмосферное давление.
Tmin - Минимальная температура - минимум температуры воздуха на высоте 2 м над землей.
Tmax - Максимальная температура - максимум температуры воздуха на высоте 2 м над землей.
R - Количество осадков - Количество выпавших осадков за период времени, мм. При наведении курсора мыши на число - период времени, за который выпало указанное количество осадков.
R24 - Количество осадков - Количество выпавших осадков за 24 часа, мм.
S - Снежный покров - Высота снежного покрова, см. При наведении курсора мыши на число - состояние снежного покрова и степень покрытия местности в баллах.